This is the latest recevied weather packets stored in our database for station/object KJ4UBX-11. If no packets are shown the sender has not sent any weather packets the latest 10 day(s).
| Time | Temp. | Humidity | Pressure | Rain* | Wind** | Luminosity | Snow |
|---|---|---|---|---|---|---|---|
| 1777582561 | 11.67° C | 100% | 1004.7 hPa | - | - | - | - |
| 1777581978 | 11.67° C | 100% | 1004.6 hPa | - | - | - | - |
| 1777581395 | 12.22° C | 100% | 1004.6 hPa | - | - | - | - |
| 1777580812 | 11.67° C | 100% | 1004.6 hPa | - | - | - | - |
| 1777580228 | 11.67° C | 100% | 1004.6 hPa | - | - | - | - |
| 1777579644 | 11.11° C | 100% | 1004.8 hPa | - | - | - | - |
| 1777579062 | 11.67° C | 100% | 1004.7 hPa | - | - | - | - |
| 1777578479 | 12.22° C | 100% | 1004.8 hPa | - | - | - | - |
| 1777577895 | 11.67° C | 100% | 1005.1 hPa | - | - | - | - |
| 1777577312 | 11.67° C | 100% | 1005.2 hPa | - | - | - | - |
| 1777576731 | 11.11° C | 100% | 1005.3 hPa | - | - | - | - |
| 1777576146 | 11.11° C | 100% | 1005.2 hPa | - | - | - | - |
| 1777575561 | 10.56° C | 100% | 1005.8 hPa | - | - | - | - |
| 1777574979 | 12.22° C | 100% | 1006.1 hPa | - | - | - | - |
| 1777574397 | 11.11° C | 100% | 1005.9 hPa | - | - | - | - |
| 1777573814 | 11.11° C | 100% | 1005.8 hPa | - | - | - | - |
| 1777573230 | 10.56° C | 100% | 1006.1 hPa | - | - | - | - |
| 1777572647 | 10.56° C | 100% | 1006.2 hPa | - | - | - | - |
| 1777572064 | 10° C | 100% | 1006.3 hPa | - | - | - | - |
| 1777571481 | 10° C | 100% | 1006.1 hPa | - | - | - | - |
| 1777570898 | 10.56° C | 100% | 1006.6 hPa | - | - | - | - |
| 1777570315 | 10° C | 100% | 1006.4 hPa | - | - | - | - |
| 1777569732 | 10.56° C | 100% | 1006.4 hPa | - | - | - | - |
| 1777569149 | 10.56° C | 100% | 1006.1 hPa | - | - | - | - |
| 1777568566 | 10° C | 100% | 1006 hPa | - | - | - | - |
* Rain since midnight (hover to see other rain measurements)
** Current wind speed in m/s (hover to see current wind gust speed)